DLH257 DTTA-EDDM

Flight info

Callsign DLH257
Flight time 1h 40m
Altitude 34000
Route TOBIB2A TOBIB A725 TANIT UA725 OSMAR DCT TIVUK DCT QUENN DCT VELAD DCT GINAR DCT SOTOV/N0389F240 T101 BETOS BETOS1B
Aircraft A346/H-SDE2E3FGHIJ3J4J5M1RWXY/LB1D1

Departure

Time 2026-05-06 16:22
Airport Tunis Carthage International Airport (DTTA)

Arrival

Time 2026-05-06 18:03
Airport Munich Airport (EDDM)
Time Latitude Longitude Altitude Speed Heading
2026-05-06 15:53 36.84018 10.21703 39 ft 0 kts 282°
2026-05-06 16:09 36.84019 10.21699 39 ft 0 kts 282°
2026-05-06 16:12 36.84015 10.21724 39 ft 4 kts 282°
2026-05-06 16:13 36.84009 10.21757 37 ft 4 kts 282°
2026-05-06 16:13 36.84005 10.21779 35 ft 4 kts 282°
2026-05-06 16:13 36.83998 10.21818 39 ft 3 kts 282°
2026-05-06 16:13 36.83996 10.21846 37 ft 4 kts 258°
2026-05-06 16:14 36.84003 10.21864 37 ft 4 kts 218°
2026-05-06 16:14 36.84022 10.21873 35 ft 4 kts 189°
2026-05-06 16:14 36.84040 10.21876 35 ft 4 kts 191°
2026-05-06 16:14 36.84045 10.21878 35 ft 0 kts 192°
2026-05-06 16:17 36.84043 10.21877 35 ft 1 kts 192°
2026-05-06 16:17 36.84022 10.21871 35 ft 4 kts 192°
2026-05-06 16:18 36.83990 10.21863 37 ft 6 kts 192°
2026-05-06 16:18 36.83960 10.21855 39 ft 7 kts 188°
2026-05-06 16:18 36.83916 10.21882 39 ft 9 kts 125°
2026-05-06 16:18 36.83894 10.21962 39 ft 11 kts 98°
2026-05-06 16:19 36.83875 10.22063 39 ft 13 kts 100°
2026-05-06 16:19 36.83868 10.22178 39 ft 10 kts 85°
2026-05-06 16:19 36.83892 10.22271 39 ft 12 kts 59°
2026-05-06 16:19 36.83927 10.22348 40 ft 7 kts 75°
2026-05-06 16:20 36.83946 10.22379 40 ft 5 kts 24°
2026-05-06 16:20 36.83968 10.22388 40 ft 0 kts 15°
2026-05-06 16:21 36.83969 10.22388 40 ft 0 kts 14°
2026-05-06 16:21 36.84065 10.22416 40 ft 42 kts 12°
2026-05-06 16:22 36.84558 10.22552 36 ft 101 kts 12°
2026-05-06 16:22 36.85417 10.22785 42 ft 150 kts 12°
2026-05-06 16:22 36.86562 10.23102 194 ft 177 kts 13°
2026-05-06 16:22 36.87753 10.23407 819 ft 175 kts
2026-05-06 16:23 36.88971 10.23226 1391 ft 182 kts 335°
2026-05-06 16:23 36.89955 10.22218 1893 ft 187 kts 308°
2026-05-06 16:23 36.90640 10.20800 2305 ft 196 kts 297°
2026-05-06 16:23 36.91486 10.19411 2600 ft 208 kts 327°
2026-05-06 16:24 36.92858 10.18848 2910 ft 218 kts 358°
2026-05-06 16:24 36.94455 10.18801 3219 ft 236 kts
2026-05-06 16:24 36.96136 10.18691 3547 ft 255 kts 356°
2026-05-06 16:24 36.97954 10.18415 4080 ft 268 kts 353°
2026-05-06 16:25 36.99809 10.18012 4811 ft 273 kts 351°
2026-05-06 16:25 37.01700 10.17528 5480 ft 281 kts 349°
2026-05-06 16:25 37.03640 10.16991 6127 ft 290 kts 349°
2026-05-06 16:25 37.05634 10.16421 6783 ft 297 kts 346°
2026-05-06 16:26 37.07661 10.15825 7531 ft 301 kts 345°
2026-05-06 16:26 37.09714 10.15208 8304 ft 305 kts 344°
2026-05-06 16:26 37.11792 10.14576 9074 ft 310 kts 343°
2026-05-06 16:26 37.13902 10.13934 9844 ft 314 kts 343°
2026-05-06 16:27 37.16052 10.13276 10450 ft 323 kts 342°
2026-05-06 16:27 37.18292 10.12585 10833 ft 340 kts 342°
2026-05-06 16:27 37.20650 10.11858 11193 ft 358 kts 343°
2026-05-06 16:27 37.23122 10.11101 11544 ft 375 kts 343°
2026-05-06 16:28 37.25719 10.10310 11881 ft 392 kts 343°
2026-05-06 16:28 37.28428 10.09484 12245 ft 409 kts 343°
2026-05-06 16:28 37.31215 10.08640 12961 ft 412 kts 343°
2026-05-06 16:28 37.34009 10.07794 13860 ft 412 kts 342°
2026-05-06 16:29 37.36811 10.06941 14494 ft 417 kts 342°
2026-05-06 16:29 37.39650 10.06074 15059 ft 423 kts 342°
2026-05-06 16:29 37.42524 10.05181 15634 ft 427 kts 341°
2026-05-06 16:29 37.45387 10.04273 16201 ft 432 kts 341°
2026-05-06 16:30 37.48315 10.03342 16721 ft 436 kts 341°
2026-05-06 16:30 37.50309 10.02708 17059 ft 439 kts 340°
2026-05-06 16:30 37.54260 10.01453 17739 ft 445 kts 340°
2026-05-06 16:30 37.57271 10.00498 18293 ft 449 kts 340°
2026-05-06 16:31 37.60315 9.99529 18850 ft 452 kts 340°
2026-05-06 16:31 37.63369 9.98558 19496 ft 453 kts 340°
2026-05-06 16:31 37.66428 9.97586 20147 ft 454 kts 340°
2026-05-06 16:31 37.69505 9.96609 20778 ft 456 kts 340°
2026-05-06 16:32 37.72579 9.95630 21398 ft 457 kts 340°
2026-05-06 16:32 37.75680 9.94642 21981 ft 459 kts 340°
2026-05-06 16:32 37.78789 9.93648 22542 ft 463 kts 340°
2026-05-06 16:32 37.81932 9.92643 22995 ft 469 kts 340°
2026-05-06 16:33 37.85107 9.91629 23506 ft 472 kts 340°
2026-05-06 16:33 37.88297 9.90611 23974 ft 475 kts 340°
2026-05-06 16:33 37.91509 9.89586 24449 ft 477 kts 340°
2026-05-06 16:34 37.97972 9.87522 25382 ft 481 kts 340°
2026-05-06 16:34 38.01227 9.86481 25833 ft 484 kts 340°
2026-05-06 16:34 38.04498 9.85434 26292 ft 486 kts 340°
2026-05-06 16:34 38.07787 9.84381 26733 ft 488 kts 340°
2026-05-06 16:35 38.11083 9.83326 27228 ft 489 kts 340°
2026-05-06 16:35 38.14389 9.82268 27747 ft 490 kts 340°
2026-05-06 16:35 38.17700 9.81204 28194 ft 492 kts 340°
2026-05-06 16:35 38.21044 9.80213 28768 ft 494 kts 344°
2026-05-06 16:36 38.24477 9.79654 29410 ft 497 kts 351°
2026-05-06 16:36 38.27938 9.79592 30048 ft 499 kts 358°
2026-05-06 16:36 38.31409 9.80040 30481 ft 503 kts
2026-05-06 16:36 38.34856 9.80829 30969 ft 503 kts
2026-05-06 16:37 38.38300 9.81710 31519 ft 500 kts
2026-05-06 16:37 38.41702 9.82591 31884 ft 498 kts
2026-05-06 16:37 38.45105 9.83459 32092 ft 500 kts
2026-05-06 16:37 38.48506 9.84317 32620 ft 497 kts
2026-05-06 16:38 38.51903 9.85158 32977 ft 500 kts
2026-05-06 16:38 38.55333 9.85999 33238 ft 503 kts
2026-05-06 16:38 38.58775 9.86844 33610 ft 504 kts
2026-05-06 16:38 38.62219 9.87691 34050 ft 503 kts
2026-05-06 16:39 38.65665 9.88543 34474 ft 501 kts
2026-05-06 16:39 38.69080 9.89388 34874 ft 499 kts
2026-05-06 16:39 38.72488 9.90229 35239 ft 499 kts
2026-05-06 16:39 38.75909 9.91073 35519 ft 500 kts
2026-05-06 16:40 38.79328 9.91917 35799 ft 501 kts
2026-05-06 16:40 38.82751 9.92811 35962 ft 503 kts
2026-05-06 16:40 38.86146 9.93930 35961 ft 505 kts 12°
2026-05-06 16:41 38.92832 9.96804 35984 ft 507 kts 16°
2026-05-06 16:41 38.99464 9.99866 35971 ft 506 kts 16°
2026-05-06 16:42 39.06024 10.02892 35970 ft 506 kts 16°
2026-05-06 16:42 39.12659 10.05944 35971 ft 506 kts 16°
2026-05-06 16:43 39.19287 10.08988 35971 ft 506 kts 16°
2026-05-06 16:43 39.25934 10.12048 35968 ft 507 kts 16°
2026-05-06 16:44 39.32570 10.15108 35969 ft 507 kts 16°
2026-05-06 16:44 39.39222 10.18181 35983 ft 508 kts 16°
2026-05-06 16:45 39.45885 10.21266 35942 ft 509 kts 16°
2026-05-06 16:45 39.52584 10.24197 35952 ft 505 kts
2026-05-06 16:46 39.59476 10.25725 35978 ft 502 kts
2026-05-06 16:46 39.66403 10.27023 35969 ft 503 kts
2026-05-06 16:47 39.73342 10.28316 35972 ft 504 kts
2026-05-06 16:47 39.80275 10.29609 35994 ft 504 kts
2026-05-06 16:48 39.87226 10.30941 35972 ft 505 kts
2026-05-06 16:48 39.94181 10.32288 35971 ft 505 kts
2026-05-06 16:49 40.01132 10.33638 35967 ft 505 kts
2026-05-06 16:49 40.08084 10.34986 35971 ft 506 kts
2026-05-06 16:50 40.15046 10.36340 35964 ft 506 kts
2026-05-06 16:50 40.21913 10.38689 35965 ft 512 kts 13°
2026-05-06 16:51 40.28737 10.41478 35963 ft 512 kts 13°
2026-05-06 16:51 40.35530 10.44286 35967 ft 512 kts 13°
2026-05-06 16:52 40.42324 10.47100 35968 ft 512 kts 13°
2026-05-06 16:52 40.49068 10.49887 35971 ft 510 kts 13°
2026-05-06 16:53 40.55828 10.52670 35969 ft 509 kts 13°
2026-05-06 16:53 40.62589 10.55453 35968 ft 509 kts 13°
2026-05-06 16:54 40.69356 10.58251 35959 ft 510 kts 13°
2026-05-06 16:54 40.76115 10.61065 35958 ft 509 kts 13°
2026-05-06 16:55 40.82917 10.63416 35955 ft 500 kts
2026-05-06 16:55 40.89842 10.64153 35970 ft 500 kts 358°
2026-05-06 16:56 40.96795 10.64773 35964 ft 501 kts 359°
2026-05-06 16:56 41.03748 10.65463 35955 ft 501 kts 359°
2026-05-06 16:57 41.10706 10.66188 35966 ft 502 kts 359°
2026-05-06 16:57 41.17678 10.66927 35958 ft 503 kts 359°
2026-05-06 16:58 41.24649 10.67671 35954 ft 503 kts 359°
2026-05-06 16:58 41.31619 10.68415 35968 ft 503 kts 359°
2026-05-06 16:59 41.38600 10.69161 35950 ft 503 kts 359°
2026-05-06 16:59 41.45588 10.69910 35940 ft 503 kts 359°
2026-05-06 17:00 41.52563 10.70659 35953 ft 503 kts 359°
2026-05-06 17:00 41.59540 10.71408 35948 ft 503 kts 359°
2026-05-06 17:01 41.66519 10.72159 35950 ft 503 kts 359°
2026-05-06 17:01 41.73495 10.72916 35956 ft 503 kts 359°
2026-05-06 17:02 41.80474 10.73673 35948 ft 502 kts 359°
2026-05-06 17:02 41.87441 10.74429 35942 ft 502 kts 359°
2026-05-06 17:03 41.94368 10.75184 35948 ft 502 kts 359°
2026-05-06 17:03 42.01324 10.75943 35940 ft 502 kts 359°
2026-05-06 17:04 42.08295 10.76501 35940 ft 499 kts 355°
2026-05-06 17:04 42.15257 10.76710 35948 ft 497 kts 355°
2026-05-06 17:05 42.21017 10.76873 35941 ft 497 kts 355°
2026-05-06 17:05 42.27933 10.77084 35942 ft 497 kts 355°
2026-05-06 17:06 42.34852 10.77305 35942 ft 497 kts 355°
2026-05-06 17:06 42.41766 10.77530 35942 ft 497 kts 355°
2026-05-06 17:07 42.48688 10.77757 35944 ft 497 kts 355°
2026-05-06 17:07 42.55605 10.77984 35949 ft 497 kts 355°
2026-05-06 17:08 42.62510 10.78211 35948 ft 496 kts 355°
2026-05-06 17:08 42.69415 10.78440 35950 ft 496 kts 355°
2026-05-06 17:09 42.76330 10.78668 35966 ft 497 kts 355°
2026-05-06 17:09 42.83251 10.78896 35953 ft 498 kts 355°
2026-05-06 17:10 42.90130 10.79126 35949 ft 498 kts 355°
2026-05-06 17:10 42.97061 10.79357 35962 ft 499 kts 355°
2026-05-06 17:11 43.03992 10.79588 35945 ft 499 kts 355°
2026-05-06 17:11 43.10947 10.79821 35949 ft 499 kts 355°
2026-05-06 17:12 43.17906 10.80054 35960 ft 501 kts 355°
2026-05-06 17:12 43.24875 10.80289 35952 ft 501 kts 355°
2026-05-06 17:13 43.31840 10.80524 35950 ft 501 kts 355°
2026-05-06 17:13 43.38804 10.80759 35949 ft 501 kts 355°
2026-05-06 17:14 43.45768 10.80997 35953 ft 501 kts 356°
2026-05-06 17:14 43.52734 10.81237 35952 ft 500 kts 356°
2026-05-06 17:15 43.59684 10.81475 35951 ft 500 kts 356°
2026-05-06 17:15 43.66653 10.81938 35951 ft 502 kts 359°
2026-05-06 17:16 43.73626 10.82726 35955 ft 502 kts 359°
2026-05-06 17:16 43.80541 10.83528 35945 ft 502 kts 359°
2026-05-06 17:17 43.87505 10.84325 35940 ft 502 kts 359°
2026-05-06 17:17 43.94477 10.85119 35949 ft 504 kts 359°
2026-05-06 17:18 44.01471 10.85915 35945 ft 505 kts 359°
2026-05-06 17:18 44.08479 10.86715 35946 ft 505 kts 359°
2026-05-06 17:19 44.15516 10.87521 35942 ft 510 kts 359°
2026-05-06 17:19 44.22599 10.88331 35927 ft 511 kts 359°
2026-05-06 17:20 44.29693 10.89146 35920 ft 511 kts 359°
2026-05-06 17:20 44.36789 10.89962 35908 ft 512 kts 359°
2026-05-06 17:21 44.43886 10.90781 35910 ft 512 kts 359°
2026-05-06 17:21 44.50972 10.91598 35902 ft 508 kts 359°
2026-05-06 17:22 44.58009 10.92416 35900 ft 507 kts 359°
2026-05-06 17:22 44.65037 10.93233 35882 ft 507 kts 359°
2026-05-06 17:23 44.72055 10.94051 35881 ft 505 kts 359°
2026-05-06 17:23 44.79059 10.94869 35874 ft 505 kts 359°
2026-05-06 17:24 44.86063 10.95689 35894 ft 505 kts 359°
2026-05-06 17:24 44.93073 10.96511 35882 ft 506 kts 359°
2026-05-06 17:25 45.00092 10.97337 35896 ft 506 kts 359°
2026-05-06 17:25 45.07109 10.98163 35913 ft 507 kts 359°
2026-05-06 17:26 45.14099 10.98988 35901 ft 508 kts 360°
2026-05-06 17:26 45.21153 10.99826 35901 ft 508 kts 360°
2026-05-06 17:27 45.28193 11.00661 35908 ft 509 kts 360°
2026-05-06 17:27 45.35253 11.01502 35875 ft 509 kts 360°
2026-05-06 17:28 45.42313 11.02347 35872 ft 509 kts 360°
2026-05-06 17:28 45.49374 11.03190 35875 ft 509 kts 360°
2026-05-06 17:29 45.56432 11.04038 35880 ft 509 kts
2026-05-06 17:29 45.63495 11.04889 35902 ft 509 kts
2026-05-06 17:30 45.70560 11.05739 35896 ft 509 kts
2026-05-06 17:30 45.77616 11.06594 35908 ft 509 kts
2026-05-06 17:31 45.84670 11.07447 35934 ft 508 kts
2026-05-06 17:31 45.91713 11.08307 35921 ft 508 kts
2026-05-06 17:32 45.98753 11.09165 35930 ft 508 kts
2026-05-06 17:32 46.05745 11.10019 35945 ft 507 kts
2026-05-06 17:33 46.12766 11.10877 35956 ft 507 kts
2026-05-06 17:33 46.19791 11.11740 35978 ft 506 kts
2026-05-06 17:34 46.26837 11.12607 35983 ft 506 kts
2026-05-06 17:34 46.33863 11.13475 35980 ft 506 kts
2026-05-06 17:35 46.40886 11.14344 35908 ft 506 kts
2026-05-06 17:35 46.47940 11.15218 35912 ft 506 kts
2026-05-06 17:36 46.58478 11.16530 35922 ft 507 kts
2026-05-06 17:36 46.65487 11.17406 35901 ft 505 kts
2026-05-06 17:37 46.72489 11.18282 35899 ft 505 kts
2026-05-06 17:37 46.79445 11.19157 35884 ft 504 kts
2026-05-06 17:38 46.86427 11.20035 35885 ft 503 kts
2026-05-06 17:38 46.93367 11.20913 35585 ft 497 kts
2026-05-06 17:39 46.96820 11.21243 34941 ft 498 kts 358°
2026-05-06 17:39 47.00302 11.21488 34220 ft 504 kts 357°
2026-05-06 17:39 47.03826 11.21708 33476 ft 508 kts 357°
2026-05-06 17:39 47.07359 11.21927 32959 ft 509 kts 357°
2026-05-06 17:40 47.10913 11.22152 32836 ft 513 kts 357°
2026-05-06 17:40 47.14484 11.22386 32824 ft 514 kts 357°
2026-05-06 17:40 47.21636 11.22866 32818 ft 515 kts 357°
2026-05-06 17:41 47.28769 11.23346 32834 ft 510 kts 358°
2026-05-06 17:41 47.35837 11.23825 32813 ft 507 kts 358°
2026-05-06 17:42 47.42843 11.25135 32531 ft 507 kts
2026-05-06 17:42 47.46252 11.26389 32254 ft 502 kts 11°
2026-05-06 17:42 47.49638 11.27700 31553 ft 505 kts 11°
2026-05-06 17:43 47.53074 11.29022 30342 ft 517 kts 11°
2026-05-06 17:43 47.56604 11.30358 28900 ft 530 kts 11°
2026-05-06 17:43 47.60197 11.31698 27992 ft 529 kts 11°
2026-05-06 17:43 47.63720 11.33008 27681 ft 515 kts 12°
2026-05-06 17:44 47.67165 11.34284 27439 ft 508 kts 11°
2026-05-06 17:44 47.70589 11.35542 27175 ft 505 kts 12°
2026-05-06 17:44 47.73993 11.36795 26916 ft 504 kts 12°
2026-05-06 17:44 47.77391 11.38038 26675 ft 502 kts 12°
2026-05-06 17:45 47.80778 11.39279 26443 ft 500 kts 12°
2026-05-06 17:45 47.84142 11.40515 26200 ft 497 kts 12°
2026-05-06 17:45 47.87492 11.41752 25892 ft 494 kts 12°
2026-05-06 17:45 47.90809 11.42976 25619 ft 489 kts 12°
2026-05-06 17:46 47.94101 11.44204 25297 ft 486 kts 13°
2026-05-06 17:46 47.97363 11.45429 24799 ft 479 kts 13°
2026-05-06 17:46 48.00565 11.46639 24189 ft 473 kts 13°
2026-05-06 17:46 48.03758 11.47850 23359 ft 472 kts 13°
2026-05-06 17:47 48.06937 11.49050 22284 ft 470 kts 13°
2026-05-06 17:47 48.10081 11.50237 21168 ft 462 kts 13°
2026-05-06 17:47 48.13165 11.51401 20177 ft 452 kts 13°
2026-05-06 17:47 48.16186 11.52539 19243 ft 442 kts 13°
2026-05-06 17:48 48.19136 11.53670 18351 ft 433 kts 15°
2026-05-06 17:48 48.21821 11.55570 17311 ft 425 kts 37°
2026-05-06 17:48 48.23792 11.58791 16315 ft 419 kts 61°
2026-05-06 17:48 48.24768 11.62835 15373 ft 410 kts 84°
2026-05-06 17:49 48.25023 11.67072 14518 ft 403 kts 88°
2026-05-06 17:49 48.25232 11.71203 13984 ft 389 kts 88°
2026-05-06 17:49 48.25465 11.75202 13276 ft 380 kts 87°
2026-05-06 17:49 48.25717 11.79058 12556 ft 372 kts 86°
2026-05-06 17:50 48.25985 11.82882 11850 ft 364 kts 86°
2026-05-06 17:50 48.26258 11.86616 11276 ft 353 kts 86°
2026-05-06 17:50 48.26441 11.89068 10963 ft 345 kts 86°
2026-05-06 17:50 48.26787 11.93688 10475 ft 326 kts 86°
2026-05-06 17:51 48.26957 11.95925 10415 ft 312 kts 86°
2026-05-06 17:51 48.27199 11.99155 10372 ft 310 kts 87°
2026-05-06 17:51 48.27513 12.03404 10245 ft 309 kts 87°
2026-05-06 17:51 48.27752 12.06620 10139 ft 308 kts 87°
2026-05-06 17:52 48.27908 12.08734 10061 ft 308 kts 87°
2026-05-06 17:52 48.28152 12.11980 9976 ft 308 kts 88°
2026-05-06 17:52 48.28384 12.15142 9732 ft 309 kts 88°
2026-05-06 17:52 48.28617 12.18338 9363 ft 307 kts 88°
2026-05-06 17:53 48.28849 12.21524 8987 ft 305 kts 88°
2026-05-06 17:53 48.29078 12.24689 8622 ft 304 kts 87°
2026-05-06 17:54 48.31844 12.36949 7116 ft 304 kts 51°
2026-05-06 17:54 48.33260 12.39294 6778 ft 302 kts 44°
2026-05-06 17:54 48.34928 12.41174 6518 ft 299 kts 24°
2026-05-06 17:55 48.36913 12.41867 6270 ft 292 kts 357°
2026-05-06 17:55 48.38845 12.41189 6018 ft 282 kts 329°
2026-05-06 17:55 48.40303 12.39358 5687 ft 267 kts 300°
2026-05-06 17:55 48.40946 12.36853 5507 ft 251 kts 270°
2026-05-06 17:56 48.40721 12.34320 5279 ft 241 kts 250°
2026-05-06 17:56 48.40139 12.31991 5075 ft 234 kts 245°
2026-05-06 17:56 48.39487 12.29795 4988 ft 226 kts 242°
2026-05-06 17:56 48.38790 12.27670 4983 ft 226 kts 241°
2026-05-06 17:57 48.38120 12.25522 4978 ft 228 kts 247°
2026-05-06 17:57 48.37679 12.23231 4976 ft 228 kts 257°
2026-05-06 17:57 48.37492 12.20854 4976 ft 229 kts 264°
2026-05-06 17:57 48.37392 12.18454 4994 ft 230 kts 264°
2026-05-06 17:58 48.37273 12.16051 5001 ft 230 kts 262°
2026-05-06 17:58 48.37119 12.13657 5000 ft 229 kts 261°
2026-05-06 17:58 48.36940 12.11281 5017 ft 225 kts 262°
2026-05-06 17:58 48.36762 12.09031 5060 ft 207 kts 262°
2026-05-06 17:59 48.36592 12.06950 4962 ft 195 kts 262°
2026-05-06 17:59 48.36425 12.04951 4745 ft 190 kts 262°
2026-05-06 17:59 48.36265 12.03019 4436 ft 182 kts 262°
2026-05-06 17:59 48.36114 12.01188 4215 ft 172 kts 263°
2026-05-06 18:00 48.35968 11.99400 3998 ft 172 kts 263°
2026-05-06 18:00 48.35824 11.97618 3792 ft 168 kts 263°
2026-05-06 18:00 48.35687 11.95925 3579 ft 165 kts 263°
2026-05-06 18:00 48.35553 11.94241 3370 ft 157 kts 263°
2026-05-06 18:01 48.35420 11.92550 3182 ft 166 kts 263°
2026-05-06 18:01 48.35286 11.90840 2947 ft 165 kts 263°
2026-05-06 18:01 48.35153 11.89155 2697 ft 153 kts 263°
2026-05-06 18:01 48.35036 11.87643 2460 ft 143 kts 263°
2026-05-06 18:02 48.34919 11.86127 2287 ft 149 kts 261°
2026-05-06 18:02 48.34798 11.84603 2058 ft 146 kts 262°
2026-05-06 18:02 48.34677 11.83076 1880 ft 148 kts 262°
2026-05-06 18:02 48.34561 11.81538 1686 ft 148 kts 263°
2026-05-06 18:03 48.34441 11.80016 1489 ft 143 kts 263°
2026-05-06 18:03 48.34346 11.78742 1471 ft 93 kts 263°
2026-05-06 18:03 48.34297 11.78108 1473 ft 36 kts 263°
2026-05-06 18:03 48.34269 11.77735 1475 ft 36 kts 263°
2026-05-06 18:04 48.34248 11.77383 1476 ft 32 kts 276°
2026-05-06 18:04 48.34307 11.77101 1465 ft 24 kts 293°
2026-05-06 18:04 48.34370 11.76880 1472 ft 18 kts 292°
2026-05-06 18:04 48.34403 11.76764 1470 ft 7 kts 298°
2026-05-06 18:05 48.34414 11.76744 1470 ft 3 kts 315°
2026-05-06 18:05 48.34429 11.76729 1465 ft 4 kts 341°
2026-05-06 18:05 48.34460 11.76759 1464 ft 0 kts 69°
2026-05-06 18:05 48.34460 11.76763 1464 ft 1 kts 69°
2026-05-06 18:06 48.34472 11.76841 1472 ft 22 kts 81°
2026-05-06 18:06 48.34486 11.77012 1468 ft 26 kts 84°
2026-05-06 18:06 48.34513 11.77359 1467 ft 17 kts 82°
2026-05-06 18:06 48.34589 11.77431 1467 ft 14 kts 26°
2026-05-06 18:07 48.34635 11.77568 1470 ft 16 kts 77°
2026-05-06 18:07 48.34659 11.77748 1472 ft 18 kts 84°
2026-05-06 18:07 48.34665 11.77939 1475 ft 19 kts 84°
2026-05-06 18:07 48.34681 11.78148 1475 ft 21 kts 83°
2026-05-06 18:08 48.34700 11.78379 1467 ft 23 kts 83°
2026-05-06 18:08 48.34718 11.78627 1471 ft 24 kts 83°
2026-05-06 18:08 48.34737 11.78885 1466 ft 25 kts 83°
2026-05-06 18:08 48.34758 11.79157 1475 ft 27 kts 83°
2026-05-06 18:09 48.34777 11.79392 1469 ft 17 kts 83°
2026-05-06 18:09 48.34789 11.79518 1469 ft 8 kts 66°
2026-05-06 18:09 48.34809 11.79546 1468 ft 4 kts 22°
2026-05-06 18:09 48.34842 11.79554 1473 ft 6 kts
2026-05-06 18:10 48.34889 11.79551 1469 ft 7 kts 355°
2026-05-06 18:10 48.34949 11.79558 1465 ft 10 kts 30°
2026-05-06 18:10 48.34999 11.79643 1465 ft 12 kts 32°
2026-05-06 18:10 48.35089 11.79653 1470 ft 14 kts 354°
2026-05-06 18:11 48.35194 11.79637 1469 ft 16 kts 354°
2026-05-06 18:11 48.35272 11.79622 1466 ft 18 kts 353°
2026-05-06 18:11 48.35384 11.79603 1466 ft 12 kts 354°
2026-05-06 18:11 48.35476 11.79588 1464 ft 7 kts 353°
2026-05-06 18:12 48.35497 11.79589 1465 ft 2 kts 31°
2026-05-06 18:12 48.35510 11.79618 1467 ft 5 kts 63°
2026-05-06 18:12 48.35519 11.79658 1471 ft 4 kts 76°
2026-05-06 18:12 48.35523 11.79687 1474 ft 3 kts 79°
2026-05-06 18:13 48.35526 11.79709 1468 ft 2 kts 80°
2026-05-06 18:13 48.35526 11.79714 1468 ft 0 kts 80°
2026-05-06 18:13 48.35527 11.79716 1468 ft 0 kts 81°